Theta_e
313 312 312 311 311 311 310 311 312 312 312 312 312 312 312 312 312 312 313 313 313 313 313 313 312 311 306 295 295 301 314 310 305 313 310 307 300 297 292 294 298 299 305 309 311 309 309
311 311 311 311 311 310 310 310 311 312 312 312 312 311 312 312 312 312 313 313 313 312 312 312 312 311 300 289 302 304 304 303 301 299 297 305 299 299 296 295 297 297 298 301 302 303 306
310 311 311 311 312 311 311 310 310 310 310 310 311 311 311 311 312 311 313 312 312 312 312 313 312 308 299 295 305 304 302 300 301 300 296 299 305 300 297 294 299 298 294 297 298 298 299
310 311 311 310 310 310 310 310 309 309 309 310 310 311 310 311 311 311 312 312 312 313 314 314 312 305 295 306 305 304 304 302 303 302 300 301 300 296 294 298 297 294 294 291 298 300 301
309 310 310 309 309 308 308 308 308 309 309 309 310 311 310 310 310 311 312 312 312 314 314 314 304 300 294 309 304 307 306 300 300 301 300 304 298 293 294 291 288 290 287 288 292 299 299
308 308 309 308 308 307 307 308 308 308 308 309 309 310 310 310 311 311 311 311 311 310 312 311 308 296 298 294 300 303 305 304 299 298 296 295 292 288 286 287 284 287 288 291 291 296 298
308 309 308 308 308 308 308 307 307 308 309 309 309 309 310 310 311 311 307 300 295 293 295 293 294 294 296 300 303 300 303 300 299 295 288 290 285 284 288 290 290 290 289 289 293 297 296
308 308 308 308 308 308 308 308 308 308 308 309 309 309 309 311 311 310 302 296 297 297 288 297 297 298 301 302 295 298 303 293 291 286 289 286 284 288 291 291 290 289 287 287 292 296 294
307 307 308 308 308 308 308 308 308 308 308 309 309 308 309 310 309 302 297 299 302 298 287 292 297 297 298 298 294 294 298 295 290 287 286 283 287 292 291 289 288 287 287 288 288 293 295
307 307 307 307 308 308 308 308 308 308 308 308 308 309 309 308 301 299 297 303 301 297 280 288 293 297 299 298 293 301 301 295 290 286 286 285 289 288 286 286 289 284 290 292 292 289 284
306 306 307 307 307 307 307 308 308 308 308 308 308 308 309 308 298 297 301 301 301 293 272 290 293 301 298 294 296 297 303 296 288 288 286 284 286 285 285 287 289 286 292 291 290 287 286
306 306 306 307 307 307 308 308 307 308 308 308 308 308 308 302 297 301 303 300 295 280 271 286 292 291 290 292 294 297 296 300 297 290 288 287 292 289 288 290 291 291 289 289 288 286 279
306 306 306 306 306 306 307 307 307 307 308 308 308 308 305 304 296 301 299 293 279 274 287 285 286 290 288 287 289 292 291 290 287 283 282 287 288 291 292 287 290 288 281 276 276 277 279
306 306 306 306 306 307 307 307 307 307 308 308 307 306 302 304 301 300 293 285 275 283 284 290 289 288 284 287 287 290 289 286 292 289 285 283 280 289 295 290 285 283 283 277 274 276 279
305 306 306 306 306 307 307 307 307 307 307 307 305 297 297 301 303 298 288 276 276 285 289 287 288 283 283 286 287 287 286 287 290 290 284 283 282 293 293 294 291 285 280 285 279 282 278
306 306 306 306 307 307 307 307 307 307 307 306 295 294 297 302 301 294 285 282 284 291 291 290 282 286 280 283 283 284 285 291 289 292 291 286 280 289 291 292 292 287 289 280 278 275 275
308 308 308 308 307 307 307 307 307 307 306 304 294 292 299 302 299 289 278 282 288 293 293 289 286 284 284 284 284 283 286 290 292 291 290 286 283 284 289 286 283 285 283 284 282 280 277
307 307 307 308 308 308 307 307 307 307 305 301 290 287 300 298 287 283 279 287 293 291 294 292 290 287 285 286 284 284 285 289 294 292 286 288 283 280 283 289 291 290 285 285 278 278 281
307 307 307 307 308 307 308 307 307 306 305 300 291 289 299 297 279 278 285 289 292 291 291 291 289 290 288 285 282 286 288 293 293 290 286 287 281 277 278 284 289 286 288 287 287 284 280
307 307 307 308 308 307 307 307 307 306 306 300 293 285 288 289 288 283 284 286 287 294 292 293 290 290 288 286 287 284 286 291 293 292 297 292 282 280 275 280 285 283 288 289 286 280 283
307 307 307 308 309 307 307 307 307 306 306 297 290 285 288 282 285 287 286 287 287 287 293 292 289 289 288 285 285 284 286 289 292 295 292 288 280 285 284 286 286 286 286 287 286 287 283
308 307 307 308 308 308 307 308 308 306 304 294 287 286 293 287 288 286 286 288 288 289 289 288 288 290 289 286 286 285 288 288 287 288 290 290 281 285 283 287 287 285 287 287 288 289 288
308 308 308 307 307 307 308 308 308 307 301 289 290 291 291 288 287 288 287 288 289 291 291 293 292 289 287 289 293 292 293 292 292 288 288 287 285 283 278 285 285 283 287 287 289 290 289
308 309 308 307 307 306 307 308 308 308 303 298 293 292 288 281 285 286 289 290 290 290 289 292 293 291 293 297 294 294 292 291 291 291 292 286 284 284 280 283 275 286 296 294 290 291 292
308 308 308 308 306 306 306 307 308 308 307 299 298 294 289 282 287 287 289 289 291 291 289 292 293 295 295 290 286 285 287 289 289 292 291 290 287 282 279 279 285 288 293 292 291 290 293
308 307 307 307 305 305 306 306 307 308 308 300 298 298 293 288 283 291 287 290 288 289 290 292 294 294 290 285 282 280 279 285 284 287 292 293 289 284 283 278 277 287 292 296 297 287 305
307 306 306 305 304 304 305 306 307 307 308 304 298 297 295 288 288 288 286 287 291 292 289 289 291 289 288 282 277 281 281 289 282 283 285 285 285 281 281 280 285 291 293 296 287 291 302
306 305 304 304 303 304 305 305 306 307 307 305 298 299 295 289 291 291 292 289 291 292 288 293 288 289 285 282 282 283 282 287 286 287 285 284 282 284 284 282 280 294 291 292 298 303 304
304 304 303 304 304 304 304 305 306 306 307 307 298 300 300 294 291 294 295 298 298 297 294 295 292 289 290 285 285 287 285 287 286 282 289 283 286 284 285 285 290 292 292 300 304 302 303
Wind_Speed
16 16 16 16 17 17 17 17 17 17 18 18 19 19 20 20 20 20 21 21 21 20 18 17 16 13 6 4 14 16 26 24 15 2 10 9 13 6 9 6 5 15 13 8 9 10 10
15 15 15 16 17 17 18 18 18 17 18 18 19 21 22 23 24 24 23 23 22 21 20 17 13 8 4 7 9 9 11 12 6 5 4 10 7 7 5 6 13 1 2 13 10 12 8
15 15 16 17 17 18 19 20 20 21 21 20 20 21 23 23 24 26 24 24 24 23 21 17 11 6 8 21 6 6 4 8 8 9 6 6 15 5 5 2 7 7 12 12 13 4 6
15 16 17 18 19 19 20 20 21 21 21 21 21 21 23 24 25 27 26 26 27 24 18 10 4 4 9 6 5 13 9 12 13 12 12 12 9 4 4 4 4 2 4 13 14 15 7
16 17 18 17 18 19 20 20 21 22 22 22 23 22 24 25 24 24 25 26 26 18 4 7 4 3 12 7 5 10 11 11 5 8 8 9 5 6 2 4 4 5 8 9 2 7 9
17 17 17 17 17 18 19 20 20 20 21 22 22 21 23 24 25 24 24 21 20 7 4 6 4 2 7 15 20 19 23 7 6 6 4 6 4 4 3 6 17 11 13 1 3 4 11
17 17 17 17 18 17 18 19 19 20 20 21 22 22 23 24 24 21 12 6 7 7 6 7 16 13 24 19 17 17 10 12 8 5 7 6 5 16 16 11 8 10 4 1 2 5 8
17 17 18 18 18 18 19 19 20 21 21 21 22 22 24 24 24 20 3 2 4 6 9 12 15 12 15 10 11 17 3 3 6 4 1 1 17 5 2 3 8 8 9 11 6 11 6
17 18 18 18 19 19 19 20 20 21 21 20 21 21 22 25 26 3 2 5 4 2 2 9 8 8 7 2 5 16 4 2 3 8 5 6 4 3 12 6 6 6 7 5 7 11 19
16 17 17 18 18 18 20 21 22 22 23 22 22 22 21 24 4 5 6 5 7 2 3 6 8 5 5 7 4 11 4 5 3 8 6 6 7 6 4 6 11 17 5 7 4 4 9
17 17 18 18 19 20 21 22 23 24 24 24 23 23 20 14 3 4 7 8 9 5 3 14 6 9 17 5 11 6 7 5 13 10 2 7 2 5 12 10 7 6 11 8 13 11 4
18 18 18 19 20 21 20 21 23 23 23 23 23 23 19 0 1 9 8 8 4 6 5 9 11 18 16 6 4 6 6 9 7 13 9 7 8 4 7 7 8 5 3 10 9 3 8
17 18 18 19 20 21 20 21 23 23 24 25 24 24 13 3 5 2 5 5 6 6 6 8 11 16 15 11 7 8 8 5 4 5 4 4 14 20 11 6 4 4 5 1 2 4 13
17 18 19 20 20 21 21 23 24 24 24 27 27 19 3 5 4 4 4 6 7 2 6 12 12 16 5 13 6 8 7 6 8 1 2 1 5 8 3 7 6 7 9 6 7 5 5
18 18 19 20 21 21 22 23 25 26 26 28 19 4 2 5 2 3 6 6 5 3 6 10 14 5 6 8 5 8 6 2 3 0 4 2 4 4 2 2 4 1 5 7 4 5 1
18 19 20 20 19 20 21 22 24 27 27 25 2 4 4 3 5 6 6 3 3 4 11 7 2 3 5 8 7 8 4 2 3 1 1 2 3 3 3 2 5 5 4 3 1 4 5
18 19 19 19 20 20 21 23 22 24 27 20 4 4 4 3 5 6 3 5 7 9 10 5 6 9 8 5 4 5 3 5 0 3 2 2 2 3 3 5 6 2 2 3 4 5 4
19 20 20 21 21 20 20 22 23 23 25 7 4 3 3 3 5 1 0 3 8 7 11 8 4 5 5 3 5 4 4 4 4 3 2 2 2 3 10 5 3 0 4 4 4 6 5
19 19 19 20 20 21 21 21 23 22 18 5 4 4 4 4 3 4 6 6 4 8 13 5 5 2 2 4 4 5 5 4 4 4 2 1 1 3 9 3 2 3 3 4 1 2 7
19 19 19 19 20 21 20 20 22 23 21 1 3 5 5 5 0 2 4 4 5 9 12 10 7 3 2 5 7 7 7 5 0 5 5 4 3 6 5 5 4 5 5 2 2 3 6
18 19 19 18 18 20 20 19 18 22 23 2 3 2 2 5 4 9 3 5 8 10 3 6 5 4 13 6 10 7 5 4 4 8 3 5 6 6 9 14 14 14 16 13 11 9 7
17 18 19 18 18 18 19 16 15 17 19 4 2 4 4 7 7 4 4 3 9 11 6 6 7 18 13 12 14 20 17 6 8 3 6 6 4 4 12 12 17 19 20 17 16 16 10
17 16 16 18 18 18 17 16 16 13 8 3 3 3 2 5 3 4 3 7 14 12 8 10 15 17 15 16 12 17 16 19 12 6 8 7 4 5 7 9 11 11 19 20 14 7 11
17 16 16 16 17 18 17 17 15 11 4 1 2 1 3 5 3 5 11 17 12 14 12 16 13 15 8 21 20 14 14 16 15 18 15 8 5 3 6 5 7 7 4 14 18 14 17
18 17 17 16 17 17 17 17 15 12 4 2 2 1 2 5 4 14 9 7 13 12 9 14 13 13 11 8 6 7 3 2 3 2 14 16 10 3 3 4 11 14 6 7 2 8 12
18 18 17 17 17 17 17 17 15 13 10 2 3 3 2 4 5 5 8 11 8 7 5 9 7 5 5 3 3 4 4 4 3 3 7 6 12 7 3 5 4 2 5 11 8 5 5
16 18 18 18 19 18 18 17 16 14 14 3 3 5 2 4 6 3 5 4 4 5 5 7 7 7 4 5 3 2 4 4 4 6 4 3 6 12 9 6 6 3 8 11 7 2 11
17 18 18 18 18 17 17 17 17 15 15 6 3 6 3 4 10 9 7 5 4 3 3 7 7 4 4 6 3 3 3 4 4 3 4 2 2 3 4 5 7 4 15 6 5 7 7
18 18 19 19 18 17 18 16 16 16 15 12 3 2 4 4 9 8 16 18 17 20 6 3 3 2 2 3 3 4 3 4 6 4 1 1 2 2 2 2 6 16 15 13 5 7 9
Wind_Direction
21 21 18 15 12 9 5 2 358 354 350 347 344 341 337 333 329 326 323 318 312 308 307 306 306 311 337 23 252 274 312 328 324 26 211 226 208 169 191 197 192 240 240 230 243 259 255
18 17 15 12 8 7 3 360 356 351 347 344 340 339 336 333 330 326 322 316 312 309 303 298 291 283 266 276 239 279 301 313 330 356 336 213 221 203 236 208 205 156 173 245 243 250 273
16 14 9 7 6 4 360 357 354 350 347 342 336 333 329 327 327 324 319 315 310 307 301 292 278 248 248 246 205 272 320 298 278 281 289 278 225 230 176 275 248 273 283 282 249 174 238
11 7 8 4 2 359 356 353 350 345 341 338 335 332 330 331 330 324 320 318 309 309 301 290 242 248 258 266 272 272 269 276 242 237 226 256 272 257 185 289 321 212 167 242 248 230 210
6 6 3 360 357 356 353 351 348 345 341 339 337 333 329 328 326 321 319 312 306 330 349 124 121 173 265 287 257 256 207 267 285 207 206 241 148 189 144 167 355 237 241 223 291 201 205
3 1 359 357 356 354 352 350 347 344 340 338 335 333 328 327 328 327 324 310 293 316 121 168 181 291 262 307 287 286 301 257 269 253 193 191 176 166 160 162 210 221 231 57 169 225 211
3 359 356 355 352 351 349 347 342 338 336 337 337 335 331 329 330 333 334 358 8 332 8 249 276 264 278 278 282 288 290 325 254 228 176 193 158 211 212 226 284 298 324 336 299 245 229
360 356 352 351 349 347 345 343 340 337 335 335 335 335 333 329 329 331 99 34 283 252 305 279 254 245 246 257 296 287 194 217 347 304 298 144 228 171 142 176 222 254 269 271 286 276 272
360 356 353 350 347 345 344 342 340 336 334 333 330 331 333 330 323 44 255 243 338 356 290 297 262 297 330 348 279 283 133 189 271 285 249 201 251 250 236 246 258 239 229 257 258 297 290
1 356 353 351 346 344 344 343 341 338 335 332 327 329 334 336 8 327 291 273 336 188 41 281 322 308 313 310 293 309 25 236 237 233 231 233 244 220 227 244 224 254 233 260 273 212 256
360 357 355 352 349 346 343 342 342 340 334 327 324 327 330 328 263 316 260 355 319 61 334 327 319 321 318 315 321 324 333 201 230 223 183 243 225 196 226 231 230 263 226 231 224 248 277
356 355 355 354 350 346 341 339 339 336 329 322 322 323 327 175 244 241 334 307 59 49 297 327 338 324 339 339 343 338 344 332 256 234 236 230 285 200 218 228 218 254 241 222 232 165 249
354 353 353 353 350 346 341 338 338 336 329 324 324 317 313 193 233 15 351 31 41 87 314 336 318 320 314 337 320 346 325 251 83 7 32 241 248 252 239 220 219 167 84 216 131 196 231
353 353 352 351 349 345 344 342 338 337 333 328 327 319 227 221 261 19 42 46 61 306 275 308 315 302 313 1 312 350 352 12 36 137 269 255 284 221 198 197 192 186 167 182 183 189 236
352 351 351 349 346 344 344 343 339 339 338 335 330 343 310 270 202 85 59 47 201 236 276 322 322 331 330 345 310 350 331 266 208 240 187 343 227 336 153 178 154 232 176 204 6 229 193
352 351 350 346 344 344 343 345 343 340 340 339 2 343 283 325 101 60 65 288 252 239 308 297 274 270 312 310 320 337 291 273 321 312 299 276 288 290 339 14 212 175 214 142 86 235 241
352 351 349 345 344 344 345 344 345 343 342 337 30 31 290 40 62 49 119 241 282 293 320 304 271 288 297 316 271 274 283 302 117 340 342 21 95 284 330 203 204 157 243 222 181 207 225
349 350 349 348 347 345 346 344 345 348 347 19 353 51 303 55 39 97 328 266 284 298 326 296 236 250 252 304 274 270 275 234 146 165 200 215 131 261 240 244 273 63 211 165 176 238 248
347 346 347 347 346 348 347 347 345 348 357 325 349 283 310 84 70 312 299 290 263 325 312 310 284 287 178 263 303 263 269 291 241 183 184 144 99 335 322 31 131 207 199 210 203 300 238
343 344 344 343 344 346 348 348 346 344 350 55 7 354 325 42 79 136 309 279 300 321 306 339 274 271 297 261 228 266 259 288 6 226 167 119 196 178 205 259 359 299 270 217 214 232 240
336 336 337 338 337 342 346 348 347 344 347 72 27 310 215 307 331 311 265 270 320 340 294 299 278 325 315 278 293 242 238 274 272 259 120 138 226 211 238 255 268 265 264 258 230 246 243
329 332 333 336 336 337 340 341 347 350 346 67 41 14 338 294 274 281 284 263 313 323 310 285 279 312 302 274 251 277 273 232 261 283 155 175 262 278 276 258 254 265 250 243 241 238 253
318 321 328 334 333 334 333 334 342 355 26 40 319 310 241 271 281 285 257 314 310 319 289 262 295 305 296 288 294 283 270 268 235 218 196 188 216 264 267 309 329 258 229 223 220 206 198
315 318 324 328 329 332 331 331 333 341 73 166 250 258 293 273 272 277 291 295 304 305 290 288 298 291 287 310 299 266 252 252 240 234 221 201 190 214 286 314 249 254 16 214 211 211 214
315 316 317 324 328 326 327 326 324 328 312 169 189 223 267 283 262 294 277 319 299 308 274 290 293 286 310 306 323 329 328 181 254 349 215 221 215 225 239 243 304 290 38 17 321 262 219
312 317 319 323 329 324 322 323 323 321 315 170 203 169 252 290 257 288 314 294 293 306 295 269 288 313 14 10 348 322 303 294 315 270 204 259 192 190 200 262 278 16 332 352 315 271 85
312 315 319 324 326 323 320 318 318 317 312 283 217 172 209 258 263 221 231 282 286 273 280 293 333 334 46 0 3 321 292 310 315 323 345 77 133 205 213 238 270 265 294 313 188 222 318
314 314 316 319 323 322 318 316 315 311 308 305 216 183 186 241 275 236 247 220 257 250 271 314 343 346 355 5 354 328 294 317 302 271 321 333 250 186 204 236 243 15 306 211 332 305 281
313 313 315 312 314 321 315 313 309 309 308 308 223 198 178 233 263 283 264 247 234 252 258 254 272 281 284 342 351 298 289 295 300 315 316 1 311 294 298 289 309 283 264 279 275 229 9